Weather History for Albany, NY

Change the Weather History Date:

Monday, September 23, 2013

  Actual Average Record
Temperature  
Mean Temperature 52 °F 59 °F  
Max Temperature 62 °F 69 °F 97 °F (1895)
Min Temperature 42 °F 49 °F 32 °F (1947)
Degree Days  
Heating Degree Days 13 7  
Month to date heating degree days 111 84  
Since 1 July heating degree days 117 107  
Cooling Degree Days 0 1  
Month to date cooling degree days 65 47  
Year to date cooling degree days 763 590  
Growing Degree Days 2 (Base 50)    
Moisture  
Dew Point 39 °F    
Average Humidity 65    
Maximum Humidity 83    
Minimum Humidity 46    
Precipitation  
Precipitation 0.00 in 0.12 in 2.01 in (1882)
Month to date precipitation 4.81 2.47  
Year to date precipitation 36.32 28.62  
Sea Level Pressure  
Sea Level Pressure 30.02 in    
Wind  
Wind Speed 9 mph (NW)    
Max Wind Speed 17 mph    
Max Gust Speed 24 mph    
Visibility 10 miles    
Events      
T = Trace of Precipitation, MM = Missing Value Source: NWS Daily Summary

Daily Weather History Graph

Daily Weather History Graph

Search for Another Location

Airport:

Trip Planner

Search our weather history database for the weather conditions in past years. The results will help you decide how hot, cold, wet, or windy it might be!

Date:

Astronomy

Sep. 23, 2013 Rise Set
Actual Time 6:43 AM EDT 6:50 PM EDT
Civil Twilight 6:15 AM EDT 7:18 PM EDT
Nautical Twilight 5:42 AM EDT 7:51 PM EDT
Astronomical Twilight 5:08 AM EDT 8:25 PM EDT
Moon 9:13 PM EDT 11:06 AM EDT
Length of Visible Light 13h 02m
Length of Day
12h 06m
Waning Gibbous, 81% of the Moon is Illuminated
Sep 23
Waning Gibbous
Sep 26
Last Quarter
Oct 4
New
Oct 11
First Quarter
Oct 18
Full

Hourly Weather History & Observations

Time (EDT) Temp. Windchill Dew Point Humidity Pressure Visibility Wind Dir Wind Speed Gust Speed Precip Events Conditions
12:51 AM 48.0 °F - 39.0 °F 71% 29.95 in 10.0 mi NW 6.9 mph - N/A   Partly Cloudy
1:51 AM 46.9 °F - 39.0 °F 74% 29.96 in 10.0 mi NW 8.1 mph - N/A   Scattered Clouds
2:51 AM 48.9 °F - 39.9 °F 71% 29.96 in 10.0 mi NW 9.2 mph - N/A   Mostly Cloudy
3:51 AM 46.9 °F - 39.0 °F 74% 29.96 in 10.0 mi WNW 6.9 mph - N/A   Mostly Cloudy
4:51 AM 45.0 °F 41.8 °F 39.0 °F 80% 29.97 in 10.0 mi WNW 5.8 mph - N/A   Partly Cloudy
5:51 AM 44.1 °F 39.0 °F 39.0 °F 82% 29.99 in 10.0 mi WNW 9.2 mph - N/A   Partly Cloudy
6:51 AM 43.0 °F 38.8 °F 37.9 °F 82% 30.01 in 10.0 mi WNW 6.9 mph - N/A   Partly Cloudy
7:51 AM 45.0 °F 40.1 °F 39.0 °F 80% 30.03 in 10.0 mi WNW 9.2 mph - N/A   Partly Cloudy
8:51 AM 48.9 °F - 39.0 °F 69% 30.03 in 10.0 mi NW 9.2 mph - N/A   Partly Cloudy
9:51 AM 51.1 °F - 37.0 °F 59% 30.04 in 10.0 mi NW 15.0 mph 20.7 mph N/A   Partly Cloudy
10:51 AM 52.0 °F - 37.9 °F 59% 30.04 in 10.0 mi NNW 10.4 mph - N/A   Mostly Cloudy
11:51 AM 53.1 °F - 39.0 °F 59% 30.05 in 10.0 mi WNW 11.5 mph 18.4 mph N/A   Overcast
12:51 PM 57.0 °F - 41.0 °F 55% 30.05 in 10.0 mi WNW 9.2 mph - N/A   Mostly Cloudy
1:51 PM 57.0 °F - 39.9 °F 53% 30.02 in 10.0 mi NW 4.6 mph - N/A   Mostly Cloudy
2:51 PM 60.1 °F - 41.0 °F 49% 30.00 in 10.0 mi West 9.2 mph 21.9 mph N/A   Scattered Clouds
3:51 PM 61.0 °F - 39.9 °F 46% 29.99 in 10.0 mi NW 10.4 mph 18.4 mph N/A   Partly Cloudy
4:51 PM 60.1 °F - 41.0 °F 49% 30.00 in 10.0 mi WNW 12.7 mph - N/A   Partly Cloudy
5:51 PM 57.9 °F - 39.9 °F 51% 30.01 in 10.0 mi WNW 10.4 mph 19.6 mph N/A   Partly Cloudy
6:51 PM 54.0 °F - 39.9 °F 59% 30.03 in 10.0 mi WNW 16.1 mph 21.9 mph N/A   Partly Cloudy
7:51 PM 53.1 °F - 39.9 °F 61% 30.06 in 10.0 mi NW 9.2 mph - N/A   Scattered Clouds
8:51 PM 50.0 °F - 39.0 °F 66% 30.07 in 10.0 mi NW 8.1 mph - N/A   Scattered Clouds
9:51 PM 48.9 °F - 39.0 °F 69% 30.09 in 10.0 mi NW 8.1 mph - N/A   Partly Cloudy
10:51 PM 46.9 °F - 39.9 °F 77% 30.10 in 10.0 mi North 4.6 mph - N/A   Partly Cloudy
11:51 PM 45.0 °F 41.8 °F 37.9 °F 76% 30.10 in 10.0 mi NW 5.8 mph - N/A   Partly Cloudy